This demonstration page uses our WeatherBlox Daily Observations layout. Learn more.

Left ArrowRight Arrow

38.20091, -84.87328

Hourly Observations for May 16, 2020

Temp ( °F °C ) Dew Point ( °F °C ) Humidity (%) Winds ( mph kmh ) Pressure ( in mb ) Visibility ( mi km ) Precip ( " mm )
12:53 am 00:53 Cloudy with Mist and Fog 66 18.9 64 17.8 93 93 Calm 29.99 1016 6 10 0.00 0.00
1:53 am 01:53 Cloudy with Mist and Fog 66 18.9 64 17.8 93 93 S 3 6 29.98 1015 5 8 0.02 0.51
2:53 am 02:53 Cloudy with Mist and Fog 66 18.9 64 17.8 93 93 Calm 29.98 1015 3 5 0.03 0.76
3:03 am 03:03 Cloudy with Mist and Fog 65 18.3 64 17.8 97 97 Calm 29.99 1015 2 3 0.00 0.00
3:08 am 03:08 Cloudy with Mist and Fog 65 18.3 64 17.8 97 97 Calm 29.99 1015 1 1 0.00 0.00
3:23 am 03:23 Mostly Cloudy with Fog 65 18.3 63 17.2 93 93 Calm 29.99 1015 1 1 0.00 0.00
3:53 am 03:53 Cloudy with Mist and Fog 65 18.3 63 17.2 93 93 ESE 5 7 29.98 1015 1 1 0.00 0.00
3:55 am 03:55 Cloudy with Mist and Fog 65 18.3 63 17.2 93 93 ESE 5 7 29.99 1015 1 2 0.00 0.00
4:27 am 04:27 Cloudy with Mist and Fog 65 18.3 63 17.2 93 93 Calm 29.99 1015 2 3 0.00 0.00
4:42 am 04:42 Cloudy with Light Rain 65 18.3 64 17.8 97 97 Calm 29.99 1015 3 5 0.00 0.00
4:53 am 04:53 Cloudy with Light Rain 66 18.9 64 17.8 93 93 NW 8 13 29.99 1016 3 4 0.02 0.51
5:01 am 05:01 Cloudy with Rain 66 18.9 63 17.2 90 90 WNW 7 11 29.99 1016 3 4 0.02 0.51
5:09 am 05:09 Cloudy with Rain 66 18.9 64 17.8 93 93 WNW 5 7 30.00 1016 3 5 0.04 1.02
5:14 am 05:14 Cloudy with Heavy Rain 66 18.9 64 17.8 93 93 W 3 6 30.00 1016 2 3 0.09 2.29
5:27 am 05:27 Cloudy with Rain 66 18.9 64 17.8 93 93 Calm 30.00 1016 3 4 0.15 3.81
5:34 am 05:34 Cloudy with Rain 66 18.9 63 17.2 90 90 Calm 30.00 1016 3 5 0.17 4.32
5:42 am 05:42 Cloudy with Heavy Rain 66 18.9 64 17.8 93 93 SE 5 7 30.00 1016 2 3 0.26 6.60
5:53 am 05:53 Cloudy with Heavy Rain 66 18.9 64 17.8 93 93 SSE 3 6 30.00 1016 2 3 0.35 8.89
6:19 am 06:19 Cloudy with Light Rain 66 18.9 64 17.8 93 93 Calm 30.00 1016 3 5 0.19 4.83
6:27 am 06:27 Cloudy with Heavy Rain 66 18.9 64 17.8 93 93 Calm 30.00 1016 2 3 0.26 6.60
6:38 am 06:38 Cloudy with Rain 66 18.9 64 17.8 93 93 SW 3 6 30.01 1016 3 4 0.30 7.62
6:46 am 06:46 Cloudy with Light Rain 66 18.9 64 17.8 93 93 SSE 3 6 30.01 1016 4 6 0.31 7.87
6:53 am 06:53 Cloudy with Heavy Rain 66 18.9 63 17.2 90 90 SSW 5 7 30.01 1016 3 4 0.34 8.64
7:03 am 07:03 Mostly Cloudy with Light Rain 66 18.9 64 17.8 93 93 SSE 6 9 30.01 1016 2 3 0.03 0.76
7:11 am 07:11 Cloudy with Light Rain 66 18.9 64 17.8 93 93 SE 3 6 30.01 1016 3 5 0.04 1.02
7:19 am 07:19 Cloudy with Light Rain 66 18.9 64 17.8 93 93 Calm 30.01 1016 3 4 0.05 1.27
7:50 am 07:50 Cloudy with Heavy Rain 66 19 64 18 94 94 S 5 7 30.02 1017 1 2 0.15 3.81
7:53 am 07:53 Cloudy with Heavy Rain 66 18.9 64 17.8 93 93 SSW 5 7 30.02 1017 1 2 0.16 4.06
8:00 am 08:00 Cloudy with Light Rain 66 18.9 63 17.2 90 90 S 3 6 30.02 1017 3 5 0.00 0.00
8:39 am 08:39 Cloudy with Rain 67 19.4 64 17.8 91 91 Calm 30.03 1017 2 3 0.05 1.27
8:49 am 08:49 Cloudy with Light Rain 66 19 64 18 94 94 Calm 30.03 1017 4 6 0.06 1.52
8:53 am 08:53 Cloudy 67 19.4 64 17.8 91 91 W 3 6 30.04 1017 10 16 0.06 1.52
8:59 am 08:59 Cloudy with Heavy Rain 67 19.4 64 17.8 91 91 SW 5 7 30.03 1017 2 2 0.06 1.52
9:07 am 09:07 Cloudy with Heavy Rain 67 19.4 64 17.8 91 91 S 3 6 30.03 1017 1 2 0.10 2.54
9:11 am 09:11 Cloudy with Rain 67 19.4 64 17.8 91 91 SSW 3 6 30.03 1017 2 3 0.11 2.79
9:19 am 09:19 Cloudy with Light Rain 67 19.4 64 17.8 91 91 Calm 30.02 1017 7 11 0.11 2.79
9:53 am 09:53 Partly Cloudy 71 21.7 65 18.3 81 81 S 7 11 30.04 1017 10 16 0.11 2.79
10:03 am 10:03 Mostly Cloudy 71 21.7 65 18.3 81 81 SW 6 9 30.04 1017 10 16 0.00 0.00
10:53 am 10:53 Mostly Cloudy 71 21.7 68 20 90 90 SSW 5 7 30.03 1017 10 16 0.03 0.76
11:53 am 11:53 Partly Cloudy 76 24.4 67 19.4 74 74 Calm 30.03 1017 10 16 0.00 0.00
12:37 pm 12:37 Mostly Cloudy 78 25.6 68 20 71 71 Calm 30.02 1016 10 16 0.00 0.00
12:53 pm 12:53 Cloudy 78 25.6 66 18.9 67 67 Calm 30.02 1017 10 16 0.00 0.00
1:32 pm 13:32 Mostly Cloudy 80 26.7 67 19.4 64 64 ENE 5 7 29.99 1016 10 16 0.00 0.00
1:53 pm 13:53 Partly Cloudy 80 26.7 67 19.4 64 64 VRB 3 6 30.00 1016 10 16 0.00 0.00
2:53 pm 14:53 Partly Cloudy 80 26.7 65 18.3 60 60 Calm 29.99 1016 10 16 0.00 0.00
3:53 pm 15:53 Mostly Cloudy 82 27.8 66 18.9 58 58 NNE 6 9 29.97 1015 10 16 0.00 0.00
4:53 pm 16:53 Cloudy with Rain 74 23.3 68 20 82 82 ESE 7 11 29.96 1015 4 6 0.05 1.27
5:09 pm 17:09 Mostly Cloudy with Thunderstorms 77 25 70 21.1 79 79 E 6 9 29.95 1014 10 16 0.01 0.25
5:24 pm 17:24 Mostly Cloudy 77 25 68 20 74 74 N 6 9 29.95 1014 10 16 0.01 0.25
5:53 pm 17:53 Mostly Cloudy with Nearby Thunderstorms 75 23.9 64 17.8 69 69 NNW 7 11 29.95 1014 10 16 0.01 0.25
6:08 pm 18:08 Partly Cloudy 74 23.3 63 17.2 69 69 N 5 7 29.95 1014 10 16 0.00 0.00
6:23 pm 18:23 Mostly Cloudy with Thunderstorms 73 22.8 64 17.8 74 74 SE 13 20 29.96 1015 10 16 0.00 0.00
6:44 pm 18:44 Cloudy 72 22.2 64 17.8 76 76 SSE 5 7 29.95 1014 10 16 0.00 0.00
6:53 pm 18:53 Cloudy with Light Rain 71 21.7 65 18.3 81 81 E 6 9 29.95 1014 7 11 0.00 0.00
7:53 pm 19:53 Mostly Cloudy 71 21.7 66 18.9 84 84 NW 3 6 29.94 1014 10 16 0.01 0.25
8:53 pm 20:53 Mostly Clear 69 20.6 66 18.9 90 90 Calm 29.95 1014 8 13 0.00 0.00
9:53 pm 21:53 Mostly Cloudy 67 19.4 64 17.8 91 91 Calm 29.95 1014 10 16 0.00 0.00
10:53 pm 22:53 Cloudy 68 20 65 18.3 90 90 Calm 29.97 1015 10 16 0.00 0.00
11:53 pm 23:53 Clear 68 20 64 17.8 87 87 E 5 7 29.96 1015 10 16 0.00 0.00

Powered by AerisWeather